�������l�o���
Date,Time,MP-1(��Sv/h),MP-2(��Sv/h),MP-3(��Sv/h),MP-4(��Sv/h),MP-5(��Sv/h),MP-6(��Sv/h),MP-7(��Sv/h),MP-8(��Sv/h),����,����(m/s),���J
2020/07/21,00:00,0.656,0.946,0.591,1.134,0.809,0.392,0.667,0.629,���쓌,1.7,��
2020/07/21,00:10,0.659,0.943,0.589,1.134,0.810,0.392,0.670,0.630,��,1.5,�L
2020/07/21,00:20,0.659,0.940,0.590,1.133,0.809,0.392,0.669,0.631,��,1.4,��
2020/07/21,00:30,0.659,0.944,0.590,1.134,0.810,0.394,0.668,0.630,���쓌,1.7,��
2020/07/21,00:40,0.656,0.944,0.591,1.133,0.811,0.393,0.669,0.629,��,1.2,��
2020/07/21,00:50,0.657,0.944,0.591,1.135,0.808,0.393,0.670,0.630,��,1.7,��
2020/07/21,01:00,0.657,0.945,0.590,1.133,0.810,0.392,0.668,0.632,��,1.7,��
2020/07/21,01:10,0.659,0.944,0.591,1.130,0.811,0.393,0.670,0.630,���쓌,1.7,��
2020/07/21,01:20,0.657,0.944,0.591,1.133,0.810,0.392,0.670,0.629,���쓌,1.5,��
2020/07/21,01:30,0.656,0.944,0.591,1.133,0.810,0.392,0.669,0.630,���쓌,0.9,��
2020/07/21,01:40,0.657,0.943,0.591,1.134,0.810,0.392,0.669,0.629,��,0.9,��
2020/07/21,01:50,0.655,0.943,0.590,1.132,0.808,0.392,0.669,0.630,���쓌,0.9,��
2020/07/21,02:00,0.657,0.942,0.590,1.132,0.810,0.392,0.669,0.630,��,0.9,��
2020/07/21,02:10,0.655,0.942,0.589,1.132,0.808,0.392,0.667,0.630,���쓌,0.9,��
2020/07/21,02:20,0.656,0.941,0.589,1.131,0.811,0.392,0.668,0.629,���쓌,1.1,��
2020/07/21,02:30,0.658,0.941,0.591,1.133,0.808,0.393,0.670,0.629,�쓌,1.1,��
2020/07/21,02:40,0.656,0.942,0.589,1.131,0.808,0.393,0.668,0.629,���쓌,0.8,��
2020/07/21,02:50,0.656,0.940,0.590,1.133,0.809,0.391,0.668,0.630,��,0.6,��
2020/07/21,03:00,0.656,0.939,0.590,1.134,0.809,0.392,0.668,0.629,�쓌,0.9,��
2020/07/21,03:10,0.657,0.942,0.591,1.133,0.806,0.392,0.668,0.630,�쓌,1.4,��
2020/07/21,03:20,0.658,0.942,0.590,1.134,0.807,0.392,0.668,0.628,���쓌,1.2,��
2020/07/21,03:30,0.656,0.940,0.589,1.132,0.808,0.393,0.669,0.631,��,0.6,��
2020/07/21,03:40,0.656,0.940,0.590,1.133,0.806,0.392,0.668,0.629,��,1.2,��
2020/07/21,03:50,0.657,0.940,0.589,1.132,0.805,0.393,0.668,0.631,��,1.2,��
2020/07/21,04:00,0.656,0.940,0.590,1.132,0.807,0.393,0.669,0.629,���쓌,1.4,��
2020/07/21,04:10,0.655,0.942,0.588,1.133,0.807,0.392,0.667,0.628,���쓌,1.5,��
2020/07/21,04:20,0.657,0.941,0.589,1.133,0.806,0.393,0.668,0.632,�쓌,1.5,��
2020/07/21,04:30,0.656,0.939,0.589,1.134,0.806,0.392,0.667,0.629,-,CALM,��
2020/07/21,04:40,0.658,0.939,0.590,1.131,0.806,0.392,0.666,0.630,��,0.9,��
2020/07/21,04:50,0.655,0.939,0.588,1.134,0.808,0.391,0.668,0.628,��쓌,1.7,�L
2020/07/21,05:00,0.656,0.940,0.589,1.133,0.809,0.392,0.667,0.628,���쓌,1.4,�L
2020/07/21,05:10,0.654,0.942,0.588,1.130,0.807,0.393,0.668,0.629,���쓌,1.9,�L
2020/07/21,05:20,0.656,0.939,0.588,1.132,0.806,0.392,0.667,0.630,�쓌,1.4,��
2020/07/21,05:30,0.656,0.939,0.588,1.133,0.808,0.391,0.667,0.628,�쓌,1.5,��
2020/07/21,05:40,0.655,0.939,0.590,1.134,0.806,0.391,0.667,0.629,�쓌,1.2,��
2020/07/21,05:50,0.654,0.939,0.590,1.131,0.805,0.391,0.668,0.630,�쓌,1.5,�L
2020/07/21,06:00,0.655,0.937,0.589,1.130,0.804,0.390,0.666,0.629,���쓌,1.7,�L
2020/07/21,06:10,0.655,0.940,0.588,1.133,0.805,0.390,0.667,0.628,�쓌,2.3,�L
2020/07/21,06:20,0.654,0.937,0.588,1.134,0.807,0.392,0.665,0.629,�쓌,2.0,�L
2020/07/21,06:30,0.654,0.938,0.587,1.130,0.805,0.391,0.666,0.628,�쓌,1.5,��
2020/07/21,06:40,0.654,0.935,0.588,1.131,0.802,0.390,0.665,0.627,��,1.4,��
2020/07/21,06:50,0.655,0.934,0.587,1.132,0.803,0.392,0.665,0.628,��쓌,2.0,��
2020/07/21,07:00,0.653,0.937,0.588,1.129,0.803,0.391,0.667,0.628,��쓌,1.7,��
2020/07/21,07:10,0.654,0.936,0.589,1.129,0.803,0.390,0.665,0.627,�쓌,1.7,��
2020/07/21,07:20,0.655,0.934,0.587,1.131,0.805,0.390,0.664,0.627,��쓌,2.8,��
2020/07/21,07:30,0.653,0.935,0.588,1.132,0.804,0.391,0.666,0.626,��쓌,2.3,��
2020/07/21,07:40,0.653,0.936,0.586,1.130,0.803,0.389,0.666,0.628,�쓌,3.4,��
2020/07/21,07:50,0.654,0.934,0.588,1.131,0.804,0.391,0.666,0.627,��쓌,3.5,��
2020/07/21,08:00,0.654,0.936,0.587,1.129,0.804,0.392,0.668,0.627,��쓌,3.0,��
2020/07/21,08:10,0.653,0.932,0.588,1.130,0.803,0.390,0.666,0.628,��쓌,4.1,��
2020/07/21,08:20,0.653,0.931,0.589,1.131,0.802,0.390,0.666,0.627,��쓌,4.0,��
2020/07/21,08:30,0.653,0.931,0.589,1.130,0.802,0.392,0.665,0.627,��쓌,3.3,��
2020/07/21,08:40,0.653,0.930,0.587,1.130,0.804,0.390,0.665,0.627,��쓌,3.8,��
2020/07/21,08:50,0.653,0.931,0.589,1.127,0.804,0.390,0.664,0.627,��쓌,3.3,��
2020/07/21,09:00,0.653,0.932,0.588,1.131,0.804,0.389,0.665,0.626,��쓌,2.9,��
2020/07/21,09:10,0.655,0.930,0.588,1.129,0.804,0.390,0.664,0.627,��쓌,3.9,��
2020/07/21,09:20,0.654,0.934,0.587,1.131,0.803,0.390,0.665,0.626,��쓌,3.5,��
2020/07/21,09:30,0.653,0.933,0.588,1.131,0.804,0.391,0.666,0.625,��쓌,4.3,��
2020/07/21,09:40,0.654,0.937,0.587,1.131,0.803,0.391,0.667,0.628,��쓌,4.1,��
2020/07/21,09:50,0.656,0.943,0.586,1.129,0.805,0.391,0.667,0.625,��쓌,3.6,��
2020/07/21,10:00,0.653,0.943,0.585,1.131,0.803,0.391,0.666,0.626,��쓌,4.7,��
2020/07/21,10:10,0.654,0.939,0.584,1.131,0.806,0.393,0.668,0.625,��쓌,4.6,��
2020/07/21,10:20,0.654,0.938,0.586,1.129,0.806,0.392,0.668,0.627,��쓌,4.0,��
2020/07/21,10:30,0.656,0.934,0.586,1.129,0.805,0.392,0.669,0.626,��쓌,4.0,��
2020/07/21,10:40,0.654,0.931,0.588,1.130,0.806,0.393,0.669,0.626,��쓌,4.5,��
2020/07/21,10:50,0.655,0.936,0.587,1.127,0.806,0.392,0.669,0.626,��쓌,4.3,��
2020/07/21,11:00,0.655,0.935,0.587,1.128,0.808,0.394,0.669,0.627,��쓌,4.5,��
2020/07/21,11:10,0.655,0.936,0.588,1.129,0.807,0.393,0.668,0.625,��쓌,5.1,��
2020/07/21,11:20,0.654,0.936,0.588,1.132,0.794,0.393,0.668,0.626,��쓌,5.4,��
2020/07/21,11:30,0.655,0.939,0.588,1.130,0.803,0.393,0.668,0.626,��쓌,5.1,��
2020/07/21,11:40,0.656,0.942,0.590,1.129,0.808,0.391,0.668,0.628,��쓌,3.9,��
2020/07/21,11:50,0.656,0.941,0.588,1.131,0.808,0.391,0.668,0.627,��쓌,4.1,��
2020/07/21,12:00,0.654,0.942,0.589,1.130,0.808,0.393,0.669,0.626,��쓌,4.6,��
2020/07/21,12:10,0.655,0.942,0.588,1.132,0.807,0.393,0.666,0.627,��쓌,4.3,��
2020/07/21,12:20,0.656,0.943,0.589,1.129,0.808,0.393,0.665,0.627,��쓌,5.4,��
2020/07/21,12:30,0.656,0.943,0.589,1.132,0.807,0.393,0.668,0.628,��쓌,4.8,��
2020/07/21,12:40,0.657,0.942,0.585,1.129,0.809,0.393,0.670,0.625,��쓌,5.1,��
2020/07/21,12:50,0.654,0.943,0.586,1.130,0.808,0.393,0.669,0.627,��쓌,4.8,��
2020/07/21,13:00,0.656,0.940,0.585,1.129,0.808,0.394,0.668,0.625,��쓌,4.6,��
2020/07/21,13:10,0.657,0.941,0.588,1.129,0.808,0.393,0.668,0.626,��쓌,4.6,��
2020/07/21,13:20,0.657,0.942,0.586,1.131,0.809,0.393,0.668,0.627,��쓌,4.4,��
2020/07/21,13:30,0.657,0.940,0.587,1.134,0.808,0.393,0.669,0.627,��쓌,4.0,��
2020/07/21,13:40,0.655,0.940,0.588,1.132,0.807,0.392,0.668,0.628,��쓌,4.3,��
2020/07/21,13:50,0.656,0.941,0.588,1.129,0.808,0.394,0.669,0.626,��쓌,4.6,��
2020/07/21,14:00,0.656,0.940,0.585,1.132,0.809,0.393,0.669,0.627,��쓌,4.6,��
2020/07/21,14:10,0.655,0.939,0.587,1.134,0.805,0.393,0.670,0.627,��쓌,4.5,��
2020/07/21,14:20,0.655,0.941,0.587,1.133,0.806,0.393,0.668,0.627,��쓌,4.5,��
2020/07/21,14:30,0.656,0.939,0.587,1.133,0.807,0.392,0.670,0.628,��쓌,3.7,��
2020/07/21,14:40,0.656,0.942,0.587,1.134,0.808,0.394,0.667,0.628,��쓌,4.8,��
2020/07/21,14:50,0.652,0.940,0.585,1.134,0.807,0.394,0.669,0.628,��쓌,4.8,��
2020/07/21,15:00,0.654,0.943,0.586,1.131,0.809,0.394,0.668,0.625,��쓌,3.8,��
2020/07/21,15:10,0.655,0.942,0.588,1.132,0.807,0.393,0.670,0.628,��쓌,4.5,��
2020/07/21,15:20,0.656,0.944,0.588,1.132,0.806,0.394,0.667,0.627,��쓌,4.1,��
2020/07/21,15:30,0.654,0.942,0.586,1.132,0.807,0.394,0.668,0.627,��쓌,3.5,��
2020/07/21,15:40,0.655,0.945,0.587,1.134,0.809,0.394,0.667,0.628,��쓌,4.5,��
2020/07/21,15:50,0.656,0.943,0.588,1.135,0.809,0.393,0.669,0.628,��쓌,5.1,��
2020/07/21,16:00,0.657,0.942,0.586,1.133,0.808,0.393,0.669,0.628,��쓌,4.6,��
2020/07/21,16:10,0.657,0.943,0.589,1.134,0.808,0.393,0.670,0.629,��쓌,4.3,��
2020/07/21,16:20,0.658,0.945,0.588,1.136,0.807,0.392,0.668,0.628,��쓌,4.7,��
2020/07/21,16:30,0.656,0.944,0.587,1.134,0.809,0.394,0.670,0.627,��쓌,4.7,��
2020/07/21,16:40,0.656,0.943,0.588,1.134,0.808,0.394,0.669,0.629,��쓌,4.3,��
2020/07/21,16:50,0.657,0.944,0.589,1.136,0.809,0.393,0.669,0.627,��쓌,4.5,��
2020/07/21,17:00,0.656,0.944,0.588,1.134,0.809,0.394,0.669,0.626,��쓌,4.2,��
2020/07/21,17:10,0.657,0.944,0.589,1.134,0.807,0.394,0.669,0.628,��쓌,4.0,��
2020/07/21,17:20,0.656,0.944,0.588,1.135,0.810,0.394,0.668,0.629,��쓌,4.1,��
2020/07/21,17:30,0.657,0.945,0.588,1.131,0.808,0.393,0.669,0.627,��,3.6,��
2020/07/21,17:40,0.658,0.944,0.587,1.134,0.808,0.393,0.669,0.628,��쓌,4.3,��
2020/07/21,17:50,0.657,0.946,0.588,1.134,0.810,0.394,0.669,0.628,��,4.6,��
2020/07/21,18:00,0.656,0.945,0.590,1.134,0.809,0.395,0.670,0.630,��쓌,4.6,��
2020/07/21,18:10,0.658,0.945,0.589,1.134,0.808,0.394,0.669,0.628,��쓌,3.4,��
2020/07/21,18:20,0.657,0.945,0.589,1.135,0.809,0.395,0.671,0.629,��쓌,3.7,��
2020/07/21,18:30,0.656,0.945,0.591,1.135,0.810,0.394,0.671,0.627,��쓌,3.1,��
2020/07/21,18:40,0.657,0.945,0.589,1.134,0.808,0.394,0.671,0.627,��쓌,3.4,��
2020/07/21,18:50,0.658,0.945,0.589,1.135,0.809,0.395,0.669,0.629,��쓌,2.0,��
2020/07/21,19:00,0.658,0.943,0.590,1.134,0.810,0.395,0.669,0.628,��쓌,2.9,��
2020/07/21,19:10,0.659,0.945,0.591,1.135,0.809,0.395,0.671,0.629,��,2.5,��
2020/07/21,19:20,0.657,0.944,0.589,1.134,0.808,0.395,0.669,0.628,��쓌,3.4,��
2020/07/21,19:30,0.658,0.944,0.588,1.136,0.811,0.393,0.670,0.630,��쓌,3.3,��
2020/07/21,19:40,0.659,0.944,0.588,1.135,0.810,0.393,0.672,0.630,��쓌,3.1,��
2020/07/21,19:50,0.658,0.943,0.590,1.134,0.808,0.394,0.670,0.629,��쓌,3.5,��
2020/07/21,20:00,0.658,0.943,0.591,1.136,0.808,0.394,0.671,0.629,��쓌,3.7,��
2020/07/21,20:10,0.656,0.946,0.591,1.135,0.810,0.393,0.671,0.628,��쓌,3.1,��
2020/07/21,20:20,0.658,0.945,0.590,1.133,0.808,0.393,0.668,0.629,��쓌,4.3,��
2020/07/21,20:30,0.657,0.945,0.589,1.137,0.808,0.394,0.668,0.629,��쓌,4.5,��
2020/07/21,20:40,0.657,0.946,0.590,1.133,0.809,0.394,0.669,0.628,��,4.4,��
2020/07/21,20:50,0.658,0.947,0.590,1.132,0.810,0.394,0.668,0.629,��,3.9,��
2020/07/21,21:00,0.657,0.943,0.590,1.134,0.809,0.393,0.670,0.629,��,3.0,��
2020/07/21,21:10,0.658,0.946,0.590,1.134,0.808,0.396,0.670,0.631,��,3.4,��
2020/07/21,21:20,0.657,0.946,0.589,1.134,0.809,0.394,0.669,0.631,��,2.3,��
2020/07/21,21:30,0.657,0.944,0.590,1.135,0.809,0.395,0.668,0.630,��,2.2,��
2020/07/21,21:40,0.660,0.945,0.590,1.135,0.811,0.395,0.667,0.629,��,1.7,��
2020/07/21,21:50,0.657,0.944,0.589,1.138,0.812,0.395,0.669,0.630,�쐼,0.9,��
2020/07/21,22:00,0.659,0.946,0.589,1.135,0.811,0.394,0.669,0.630,�쐼,0.8,��
2020/07/21,22:10,0.658,0.946,0.590,1.135,0.812,0.394,0.669,0.630,�쐼,1.7,��
2020/07/21,22:20,0.656,0.947,0.591,1.135,0.812,0.394,0.669,0.630,��쐼,2.6,��
2020/07/21,22:30,0.659,0.945,0.590,1.135,0.812,0.395,0.670,0.630,�쐼,1.1,��
2020/07/21,22:40,0.659,0.947,0.589,1.135,0.813,0.393,0.669,0.631,��,0.8,��
2020/07/21,22:50,0.658,0.946,0.589,1.137,0.813,0.396,0.670,0.631,-,CALM,��
2020/07/21,23:00,0.659,0.946,0.591,1.136,0.811,0.395,0.671,0.630,�k�k��,0.9,��
2020/07/21,23:10,0.659,0.944,0.591,1.134,0.814,0.394,0.669,0.630,�k,0.9,��
2020/07/21,23:20,0.660,0.945,0.592,1.135,0.813,0.395,0.669,0.631,�k�k��,2.2,��
2020/07/21,23:30,0.658,0.945,0.590,1.137,0.812,0.395,0.670,0.630,�k�k��,2.5,�L
2020/07/21,23:40,0.660,0.945,0.593,1.139,0.815,0.394,0.670,0.631,�k,2.0,�L
2020/07/21,23:50,0.661,0.944,0.591,1.138,0.813,0.396,0.671,0.631,�k,2.0,�L
